Weather History for Hazen, ND

Change the Weather History Date:

Friday, October 19, 2012

  Actual Average (KN60) Record (KN60)
Temperature  
Mean Temperature 42 °F -  
Max Temperature 48 °F 51 °F 82 °F (2003)
Min Temperature 37 °F 29 °F 21 °F (2011)
Degree Days  
Heating Degree Days 22    
Moisture  
Dew Point 32 °F    
Average Humidity 69    
Maximum Humidity 81    
Minimum Humidity 54    
Precipitation  
Precipitation 0.00 in - - ()
Sea Level Pressure  
Sea Level Pressure 29.83 in    
Wind  
Wind Speed 9 mph (NNW)    
Max Wind Speed 15 mph    
Max Gust Speed 26 mph    
Visibility 10 miles    
Events      
Averages and records for this station are not official NWS values.
T = Trace of Precipitation, MM = Missing Value Source: NWS Daily Summary

Daily Weather History Graph

Daily Weather History Graph

Search for Another Location

Airport:

Trip Planner

Search our weather history database for the weather conditions in past years. The results will help you decide how hot, cold, wet, or windy it might be!

Date:

Astronomy

Oct. 19, 2012 Rise Set
Actual Time 8:11 AM CDT 6:50 PM CDT
Civil Twilight 7:40 AM CDT 7:21 PM CDT
Nautical Twilight 7:04 AM CDT 7:56 PM CDT
Astronomical Twilight 6:29 AM CDT 8:32 PM CDT
Moon 1:10 PM CDT (10/19) 10:17 PM CDT (10/19)
Length of Visible Light 11h 41m
Length of Day
10h 39m
Waxing Crescent, 24% of the Moon is Illuminated
Oct 19
Waxing Crescent
Oct 21
First Quarter
Oct 29
Full
Nov 6
Last Quarter
Nov 13
New

Hourly Weather History & Observations

Time (CDT) Temp. Windchill Dew Point Humidity Pressure Visibility Wind Dir Wind Speed Gust Speed Precip Events Conditions
1:15 AM 41.0 °F 33.9 °F 33.8 °F 76% 29.97 in 10.0 mi NNW 12.7 mph 24.2 mph N/A   Overcast
1:35 AM 41.0 °F 33.1 °F 32.0 °F 70% 29.97 in 10.0 mi North 15.0 mph 26.5 mph N/A   Overcast
1:55 AM 41.0 °F 33.1 °F 32.0 °F 70% 29.97 in 10.0 mi NNW 15.0 mph 18.4 mph N/A   Overcast
2:15 AM 41.0 °F 33.9 °F 32.0 °F 70% 29.97 in 10.0 mi NNW 12.7 mph 20.7 mph N/A   Overcast
2:35 AM 41.0 °F 33.9 °F 32.0 °F 70% 29.97 in 10.0 mi NNW 12.7 mph 19.6 mph N/A   Overcast
2:55 AM 41.0 °F 34.7 °F 32.0 °F 70% 29.97 in 10.0 mi North 10.4 mph - N/A   Overcast
3:15 AM 41.0 °F 34.7 °F 32.0 °F 70% 29.96 in 10.0 mi North 10.4 mph - N/A   Overcast
3:35 AM 39.2 °F 31.6 °F 32.0 °F 75% 29.96 in 10.0 mi NNW 12.7 mph - N/A   Overcast
3:55 AM 39.2 °F 31.6 °F 32.0 °F 75% 29.96 in 10.0 mi NNW 12.7 mph - N/A   Overcast
4:15 AM 39.2 °F 31.6 °F 32.0 °F 75% 29.95 in 10.0 mi NNW 12.7 mph - N/A   Overcast
4:35 AM 39.2 °F 31.6 °F 32.0 °F 75% 29.95 in 10.0 mi North 12.7 mph - N/A   Overcast
4:55 AM 39.2 °F 32.5 °F 32.0 °F 75% 29.95 in 10.0 mi North 10.4 mph 17.3 mph N/A   Overcast
5:15 AM 39.2 °F 32.5 °F 32.0 °F 75% 29.94 in 10.0 mi NNW 10.4 mph 16.1 mph N/A   Overcast
5:35 AM 39.2 °F 32.5 °F 32.0 °F 75% 29.94 in 10.0 mi NNW 10.4 mph - N/A   Overcast
5:55 AM 39.2 °F 32.5 °F 32.0 °F 75% 29.94 in 10.0 mi NNW 10.4 mph - N/A   Overcast
6:15 AM 39.2 °F 33.6 °F 32.0 °F 75% 29.93 in 10.0 mi NNW 8.1 mph - N/A   Overcast
6:35 AM 39.2 °F 33.6 °F 32.0 °F 75% 29.94 in 10.0 mi NNW 8.1 mph - N/A   Overcast
6:55 AM 39.2 °F 32.0 °F 32.0 °F 75% 29.94 in 10.0 mi NNW 11.5 mph 16.1 mph N/A   Overcast
7:15 AM 39.2 °F 33.6 °F 32.0 °F 75% 29.94 in 10.0 mi NNW 8.1 mph - N/A   Overcast
7:35 AM 39.2 °F 33.6 °F 32.0 °F 75% 29.94 in 10.0 mi NNW 8.1 mph - N/A   Overcast
7:55 AM 37.4 °F 31.4 °F 32.0 °F 81% 29.94 in 10.0 mi NNW 8.1 mph - N/A   Overcast
8:15 AM 37.4 °F 32.1 °F 32.0 °F 81% 29.94 in 10.0 mi NW 6.9 mph - N/A   Overcast
8:35 AM 37.4 °F 32.1 °F 32.0 °F 81% 29.93 in 10.0 mi NW 6.9 mph - N/A   Overcast
8:55 AM 37.4 °F 31.4 °F 32.0 °F 81% 29.92 in 10.0 mi NW 8.1 mph - N/A   Overcast
9:15 AM 39.2 °F 33.6 °F 32.0 °F 75% 29.92 in 10.0 mi NNW 8.1 mph - N/A   Overcast
9:35 AM 37.4 °F 31.4 °F 30.2 °F 75% 29.92 in 10.0 mi NNW 8.1 mph - N/A   Overcast
9:55 AM 39.2 °F 33.0 °F 32.0 °F 75% 29.91 in 10.0 mi North 9.2 mph - N/A   Overcast
10:15 AM 39.2 °F 33.6 °F 30.2 °F 70% 29.91 in 10.0 mi NNW 8.1 mph - N/A   Overcast
10:35 AM 39.2 °F 34.2 °F 32.0 °F 75% 29.91 in 10.0 mi NNW 6.9 mph - N/A   Overcast
10:55 AM 39.2 °F 34.2 °F 30.2 °F 70% 29.90 in 10.0 mi North 6.9 mph - N/A   Overcast
11:15 AM 39.2 °F 37.0 °F 32.0 °F 75% 29.89 in 10.0 mi North 3.5 mph - N/A   Overcast
11:35 AM 39.2 °F 35.0 °F 32.0 °F 75% 29.89 in 10.0 mi WNW 5.8 mph - N/A   Overcast
11:55 AM 41.0 °F 39.0 °F 32.0 °F 70% 29.88 in 10.0 mi WNW 3.5 mph - N/A   Mostly Cloudy
12:15 PM 41.0 °F - 32.0 °F 70% 29.88 in 10.0 mi Calm Calm - N/A   Scattered Clouds
12:35 PM 42.8 °F 38.6 °F 32.0 °F 66% 29.88 in 10.0 mi WNW 6.9 mph - N/A   Partly Cloudy
12:55 PM 41.0 °F - 32.0 °F 70% 29.85 in 5.0 mi Calm Calm - N/A   Haze
1:15 PM 42.8 °F 41.1 °F 32.0 °F 66% 29.83 in 7.0 mi West 3.5 mph - N/A   Clear
1:35 PM 42.8 °F - 32.0 °F 66% 29.82 in 8.0 mi Calm Calm - N/A   Clear
1:55 PM 42.8 °F - 32.0 °F 66% 29.81 in 8.0 mi Calm Calm - N/A   Clear
2:15 PM 44.6 °F - 32.0 °F 61% 29.80 in 8.0 mi Calm Calm - N/A   Clear
2:35 PM 44.6 °F 41.4 °F 32.0 °F 61% 29.80 in 8.0 mi WNW 5.8 mph - N/A   Clear
2:55 PM 44.6 °F 42.2 °F 32.0 °F 61% 29.78 in 7.0 mi South 4.6 mph - N/A   Clear
3:15 PM 46.4 °F 45.2 °F 32.0 °F 57% 29.78 in 8.0 mi SSE 3.5 mph - N/A   Clear
3:35 PM 46.4 °F - 32.0 °F 57% 29.77 in 8.0 mi Calm Calm - N/A   Clear
3:55 PM 46.4 °F 45.2 °F 32.0 °F 57% 29.77 in 10.0 mi SW 3.5 mph - N/A   Clear
4:15 PM 48.2 °F - 32.0 °F 54% 29.77 in 10.0 mi SW 4.6 mph - N/A   Mostly Cloudy
4:35 PM 48.2 °F - 32.0 °F 54% 29.76 in 10.0 mi SW 3.5 mph - N/A   Partly Cloudy
4:55 PM 48.2 °F - 32.0 °F 54% 29.73 in 10.0 mi ESE 4.6 mph - N/A   Clear
5:15 PM 48.2 °F - 32.0 °F 54% 29.72 in 10.0 mi SE 6.9 mph - N/A   Clear
5:35 PM 46.4 °F 44.3 °F 32.0 °F 57% 29.73 in 10.0 mi SSE 4.6 mph - N/A   Clear
5:55 PM 46.4 °F 45.2 °F 32.0 °F 57% 29.72 in 10.0 mi SSE 3.5 mph - N/A   Clear
6:15 PM 46.4 °F 44.3 °F 32.0 °F 57% 29.72 in 9.0 mi SE 4.6 mph - N/A   Clear
6:35 PM 44.6 °F 40.7 °F 32.0 °F 61% 29.71 in 9.0 mi ESE 6.9 mph - N/A   Clear
6:55 PM 44.6 °F 40.7 °F 32.0 °F 61% 29.70 in 10.0 mi SE 6.9 mph - N/A   Clear
7:15 PM 44.6 °F 40.7 °F 32.0 °F 61% 29.71 in 10.0 mi SE 6.9 mph - N/A   Clear
7:35 PM 42.8 °F 38.6 °F 32.0 °F 66% 29.70 in 10.0 mi ESE 6.9 mph - N/A   Clear
7:55 PM 42.8 °F 39.3 °F 32.0 °F 66% 29.70 in 10.0 mi SE 5.8 mph - N/A   Clear
8:15 PM 41.0 °F 38.0 °F 32.0 °F 70% 29.70 in 10.0 mi SE 4.6 mph - N/A   Clear
8:35 PM 41.0 °F 39.0 °F 33.8 °F 76% 29.69 in 10.0 mi ESE 3.5 mph - N/A   Clear
8:55 PM 41.0 °F 39.0 °F 32.0 °F 70% 29.68 in 10.0 mi ESE 3.5 mph - N/A   Clear
9:15 PM 41.0 °F 38.0 °F 32.0 °F 70% 29.67 in 10.0 mi ESE 4.6 mph - N/A   Clear
9:35 PM 41.0 °F - 32.0 °F 70% 29.67 in 10.0 mi Calm Calm - N/A   Clear
9:55 PM 41.0 °F 39.0 °F 32.0 °F 70% 29.67 in 10.0 mi ESE 3.5 mph - N/A   Clear
10:15 PM 41.0 °F 39.0 °F 32.0 °F 70% 29.67 in 10.0 mi ESE 3.5 mph - N/A   Clear
10:35 PM 41.0 °F 39.0 °F 32.0 °F 70% 29.67 in 10.0 mi East 3.5 mph - N/A   Clear
10:55 PM 41.0 °F 39.0 °F 32.0 °F 70% 29.66 in 10.0 mi SE 3.5 mph - N/A   Clear
11:15 PM 39.2 °F - 32.0 °F 75% 29.66 in 10.0 mi Calm Calm - N/A   Clear
11:35 PM 39.2 °F - 32.0 °F 75% 29.65 in 10.0 mi Calm Calm - N/A   Clear
11:55 PM 39.2 °F 34.2 °F 32.0 °F 75% 29.64 in 10.0 mi South 6.9 mph - N/A   Clear